Temp
17 17 18 18 18 18 18 18 18 18 19 19 19 20 20 21 21 21 22 21 21 22 22 22 22 22 22 23 21 21 26 26 25 25 26 24 25 24 23 25 25 23 22 17 15
16 17 17 17 17 18 18 18 17 18 18 19 19 20 20 21 21 21 21 21 21 22 22 23 24 23 25 23 23 25 26 26 25 25 25 24 25 25 25 25 24 22 17 15 15
17 17 17 17 17 17 17 18 18 18 18 18 19 20 20 20 22 22 21 21 21 21 22 22 22 24 24 23 22 22 25 23 23 24 24 24 24 23 25 24 24 23 19 16 16
16 16 17 17 17 16 17 17 17 18 18 18 19 19 20 20 24 21 21 21 21 21 21 21 23 24 24 24 21 24 22 22 22 21 22 23 23 23 23 22 18 17 15 15 15
15 15 16 16 16 16 16 16 16 17 17 18 18 19 20 22 23 21 21 21 21 21 21 23 23 23 24 23 22 23 22 21 21 20 21 20 22 23 21 17 15 14 14 14 14
13 14 14 16 16 15 15 15 16 16 17 18 18 19 20 22 20 20 21 21 21 21 20 22 23 22 22 22 22 22 21 22 22 21 21 21 22 21 18 16 15 15 14 13 12
13 13 14 14 15 15 15 15 15 16 17 17 18 18 19 22 20 20 20 20 20 20 21 20 20 22 22 21 20 20 22 23 22 21 22 21 20 21 19 17 15 14 13 12 11
12 12 13 13 14 14 14 15 15 16 16 17 17 18 21 19 18 19 19 19 19 20 20 19 20 20 21 20 21 22 21 23 22 20 20 20 24 20 18 18 16 14 13 12 10
12 12 12 13 13 13 14 14 15 15 16 16 16 17 20 17 17 18 18 19 18 18 18 19 19 20 20 22 22 21 24 22 23 21 21 21 23 19 17 18 16 15 13 12 12
11 11 12 12 12 13 13 14 14 14 14 15 15 18 17 18 17 17 18 18 18 18 20 20 20 21 20 22 23 23 21 20 22 22 20 21 23 19 16 17 16 14 13 12 12
11 11 11 12 12 12 13 13 15 16 13 19 19 19 17 15 16 16 17 18 19 20 20 18 21 21 23 23 22 22 22 22 21 20 20 22 23 22 17 15 15 14 13 12 11
11 11 11 11 11 11 11 14 16 16 18 16 16 16 16 16 17 16 17 20 19 19 17 18 20 22 19 19 20 20 21 22 20 19 19 21 21 22 16 16 15 14 13 12 10
12 11 11 11 11 11 12 13 15 16 18 17 15 17 16 16 19 17 17 17 18 17 18 21 21 18 19 17 18 19 20 22 21 18 17 18 20 21 14 12 12 12 12 12 12
12 11 11 11 10 11 11 13 15 15 18 18 16 17 15 18 17 14 16 18 17 19 17 19 18 17 18 19 19 20 19 19 18 19 20 17 21 20 17 13 11 11 11 11 10
12 11 11 11 12 12 14 14 14 15 17 18 14 14 14 18 16 14 15 17 18 17 18 20 16 17 18 19 18 20 17 18 18 18 17 18 19 22 14 15 12 11 11 11 11
12 12 11 11 11 12 13 14 14 17 17 15 14 14 15 15 14 14 15 15 16 16 16 18 15 17 19 15 17 14 16 15 15 17 17 19 19 22 18 17 16 12 11 11 9
12 12 11 11 12 13 13 13 15 16 18 15 14 14 15 14 14 14 15 15 17 17 17 16 16 15 15 16 14 16 18 18 17 16 17 14 16 22 20 15 15 12 11 10 9
12 12 11 11 12 13 12 13 14 19 19 13 13 13 15 14 14 13 14 16 16 16 16 17 17 16 16 18 17 15 19 18 17 16 18 12 16 19 14 11 11 13 11 10 9
11 11 11 11 11 12 11 13 15 18 20 16 14 14 15 14 15 14 15 16 17 16 18 16 17 14 14 14 17 15 16 17 13 7 15 19 17 17 10 10 9 10 10 9 8
10 11 11 11 11 10 12 13 15 18 16 17 18 17 16 15 15 15 14 16 15 15 17 18 17 13 13 15 14 16 17 15 16 16 17 17 16 21 13 13 10 9 9 9 9
9 11 12 11 10 11 12 13 16 17 17 17 18 18 17 15 16 15 17 15 16 14 16 16 16 13 14 15 17 14 15 15 17 16 17 18 19 18 18 15 11 11 10 10 9
9 11 11 11 12 13 12 13 15 16 15 17 17 18 16 16 16 16 16 18 16 15 14 16 14 14 14 13 12 16 17 17 18 14 14 15 19 13 14 14 13 12 10 10 9
10 10 10 11 13 12 12 13 14 15 16 16 16 16 17 16 16 16 16 15 15 15 15 15 13 14 14 13 11 13 14 15 17 13 14 16 19 11 10 11 11 12 10 9 9
9 9 9 9 11 13 12 12 12 14 14 16 17 15 14 16 16 16 15 12 13 15 14 16 14 14 17 18 17 13 14 14 15 16 17 16 18 13 12 12 10 10 10 10 9
9 10 10 11 11 12 13 12 12 12 13 13 14 15 16 14 14 15 16 11 11 12 13 15 13 14 16 17 15 15 15 14 15 17 17 19 16 16 15 13 13 12 11 10 9
9 9 7 10 10 11 11 12 12 13 12 12 13 13 14 14 14 14 15 14 15 10 11 11 13 14 13 14 12 13 14 14 15 16 17 17 16 17 15 13 12 11 10 9 9
4 4 8 9 10 11 11 12 11 12 10 11 12 12 11 13 11 8 8 11 11 12 11 11 12 10 12 13 10 10 11 13 14 16 16 16 16 11 11 11 11 11 10 10 9
Height
836 836 836 836 836 836 836 835 835 833 833 832 830 829 827 826 824 823 823 823 823 823 823 823 824 824 824 826 830 830 831 838 838 839 833 832 832 833 834 832 834 838 840 847 845
835 835 836 836 836 836 835 835 834 833 832 832 830 828 827 825 824 823 823 822 822 823 823 823 823 824 824 828 830 828 830 832 829 828 830 832 833 833 834 833 836 840 847 848 846
834 835 835 836 836 836 835 834 834 833 832 831 829 828 826 825 823 822 821 822 822 823 823 823 824 824 827 829 832 834 831 833 833 832 832 834 835 834 833 837 835 837 845 849 848
833 834 834 835 835 835 834 834 833 832 832 830 829 827 826 825 831 821 821 822 823 823 824 825 825 826 829 831 833 833 835 834 835 835 837 836 834 835 837 838 845 847 850 850 850
830 832 833 834 834 834 834 833 833 832 831 830 828 827 826 825 821 821 821 822 823 825 825 825 825 828 831 832 834 833 833 835 834 837 836 838 835 834 839 847 849 851 851 851 851
828 829 831 831 832 832 832 831 831 830 829 829 827 827 827 827 820 820 821 822 823 824 825 825 825 827 831 833 834 834 835 833 833 835 835 836 835 837 845 849 851 852 852 853 853
826 826 827 829 829 830 830 830 830 829 829 828 827 825 825 820 819 820 821 822 823 824 825 825 826 827 830 836 837 837 836 830 829 833 832 835 840 837 839 846 849 853 854 856 856
823 824 825 825 826 827 828 828 828 828 828 827 826 826 820 818 818 820 821 822 823 824 825 826 827 829 831 837 836 837 838 835 828 832 834 836 827 836 841 843 847 852 854 857 858
819 821 822 823 824 824 826 827 827 827 826 826 826 826 820 817 818 819 821 822 824 826 827 827 828 833 836 835 839 840 830 838 830 830 832 835 830 837 842 841 845 849 853 855 855
815 818 819 821 822 823 824 825 825 825 825 825 826 827 819 815 815 817 820 822 824 826 828 830 831 832 837 833 834 831 838 839 832 829 834 831 825 835 842 841 843 849 852 854 855
811 815 816 818 820 822 825 826 828 825 823 811 811 811 812 815 816 818 820 822 824 826 827 833 830 829 819 821 826 829 832 828 830 833 835 826 823 825 838 842 843 846 849 852 856
806 811 813 815 817 820 822 821 816 818 813 808 811 811 811 812 816 818 819 820 823 825 832 837 828 815 827 830 832 835 834 829 831 836 837 827 827 818 837 835 838 843 847 851 856
800 807 810 813 816 818 819 817 816 816 814 804 803 803 806 809 806 811 816 818 819 828 825 818 816 820 825 834 836 832 832 826 830 839 840 838 824 816 833 841 844 845 846 849 850
793 802 806 809 816 814 814 812 815 817 813 797 798 794 799 801 807 807 810 812 820 817 825 819 820 825 827 826 825 827 827 831 836 839 833 838 815 811 818 831 841 844 845 847 851
786 794 799 801 803 807 807 809 814 817 827 786 795 796 796 795 800 809 810 809 812 817 819 810 823 823 821 816 822 820 830 832 835 834 840 834 832 796 827 823 831 839 843 847 852
778 784 791 796 797 800 804 807 814 822 801 789 792 794 796 800 804 809 810 810 812 818 820 814 821 819 812 824 822 834 837 842 843 839 835 819 825 791 805 802 811 833 840 844 850
767 773 781 784 786 797 802 808 815 801 770 784 787 790 788 797 804 803 807 807 804 815 814 818 815 816 818 821 831 826 827 836 842 841 823 833 827 782 788 803 805 816 828 838 847
755 762 767 771 782 790 798 803 799 741 756 780 784 788 786 792 797 802 804 802 803 802 807 808 808 808 808 800 811 823 812 818 829 826 808 844 813 788 801 810 813 812 822 833 841
751 748 752 760 771 778 788 782 759 742 739 767 786 784 785 788 787 797 796 791 788 794 793 802 801 804 806 807 803 819 821 814 836 870 824 795 798 791 811 814 818 819 826 831 836
744 742 740 749 760 769 766 758 744 735 745 751 753 756 768 778 782 785 788 778 784 782 779 785 794 806 809 806 810 804 802 822 819 820 810 795 797 766 796 797 813 820 821 826 832
741 734 728 740 748 749 742 736 736 736 739 745 742 747 751 763 764 771 762 772 770 779 779 786 792 808 808 799 788 805 804 804 796 799 794 787 772 766 768 780 796 804 810 815 824
735 730 725 729 730 725 733 723 734 733 740 735 737 735 747 755 756 759 755 748 758 767 780 777 793 798 792 795 798 783 780 785 780 804 802 795 762 778 778 781 786 793 803 811 820
727 724 723 714 710 715 723 729 730 730 728 729 733 734 736 742 750 746 748 751 755 756 760 772 788 795 790 794 801 789 785 779 774 792 783 784 755 783 786 786 788 790 798 806 814
725 725 717 710 701 705 717 718 723 724 724 723 721 734 737 735 732 732 744 753 754 749 752 752 770 766 749 744 754 777 770 775 772 772 759 756 753 777 776 779 787 792 793 798 806
707 708 704 701 702 696 704 708 713 717 721 722 722 718 721 736 736 729 735 756 759 755 755 752 762 756 743 745 754 753 752 765 761 742 752 731 750 755 759 768 770 775 785 794 800
698 701 709 699 696 696 696 698 702 707 713 714 715 716 717 717 720 724 728 732 733 756 756 758 749 751 748 745 756 755 751 745 744 740 739 738 742 742 751 762 770 774 782 788 791
705 702 701 696 693 696 693 695 702 704 710 707 709 713 718 713 721 732 735 728 730 733 743 751 747 759 738 743 766 769 728 743 734 731 731 734 730 753 762 763 763 768 776 778 785
Wind_Speed
1 1 1 2 2 3 3 4 4 6 7 8 9 9 10 10 10 4 2 2 2 5 4 5 4 3 3 3 3 1 3 5 7 7 6 4 5 3 2 2 3 4 4 5 8
2 2 2 2 2 2 3 3 4 6 7 9 9 10 10 10 6 1 2 3 4 5 4 4 3 2 3 2 2 1 2 4 3 4 6 4 2 2 4 2 5 4 7 6 7
5 5 4 5 5 4 4 4 5 6 7 9 10 10 10 9 3 1 2 5 6 5 5 4 5 2 2 1 1 1 1 4 3 3 2 3 1 2 2 3 2 1 5 6 8
8 7 7 6 6 5 5 5 5 7 8 9 10 9 8 4 3 2 3 5 6 6 7 5 2 2 1 1 1 2 2 2 3 4 3 3 2 2 4 2 5 7 6 5 7
10 9 9 8 7 6 6 5 6 6 8 9 9 8 3 2 2 2 3 6 9 8 4 3 2 3 3 3 3 3 3 3 3 5 4 1 5 2 5 5 7 8 7 6 7
12 10 10 9 9 7 6 6 6 7 8 9 8 5 1 5 2 3 5 7 8 6 4 3 3 3 5 2 3 1 2 3 3 3 5 6 2 4 5 8 7 5 6 7 9
14 12 11 9 8 8 7 7 7 7 8 8 6 1 2 7 4 6 6 6 7 6 4 3 6 2 6 4 1 1 4 5 6 3 5 7 4 6 12 9 6 5 5 5 7
16 14 12 10 9 8 8 7 7 8 7 4 2 0 5 3 6 6 7 6 6 5 5 7 5 6 1 5 2 2 2 4 3 4 3 7 4 7 11 9 5 4 4 3 6
18 16 13 11 9 9 8 7 8 7 5 3 1 2 5 3 4 9 9 7 8 8 6 8 4 3 4 4 3 2 6 6 3 4 3 8 3 8 5 7 6 5 4 3 5
20 17 14 11 10 9 8 7 7 7 2 2 1 3 4 4 5 9 9 13 4 8 5 2 3 4 4 8 8 6 6 5 6 2 5 6 8 11 3 6 6 5 5 5 5
21 19 16 12 10 9 6 3 3 3 5 8 5 1 4 4 7 5 8 7 5 3 8 2 7 12 18 16 5 1 4 8 3 1 3 11 13 12 6 5 7 6 6 6 6
23 21 17 13 11 9 6 4 3 2 6 13 5 4 4 8 3 5 13 9 7 8 8 4 13 15 2 9 8 6 9 13 5 3 5 9 14 15 10 7 7 9 9 9 8
24 24 19 15 11 12 12 8 3 1 5 5 7 8 5 11 7 14 15 6 5 9 16 13 2 7 9 8 11 11 13 12 9 2 4 6 15 19 6 6 7 8 10 11 12
28 27 22 17 11 10 10 20 8 2 6 7 7 6 7 8 6 2 14 4 4 14 8 9 4 7 11 12 13 15 13 9 7 4 10 3 8 4 8 10 11 12 13 13 12
31 30 27 28 8 13 8 18 17 1 8 5 5 3 3 9 10 2 6 2 9 9 8 6 10 11 11 8 12 6 5 10 8 10 6 8 7 4 3 11 15 15 14 13 11
37 34 32 32 14 10 13 19 13 4 13 6 5 7 9 3 2 4 4 3 3 5 2 4 2 4 5 3 4 13 7 5 2 3 9 16 13 6 7 8 12 16 16 16 14
40 40 42 33 15 20 19 13 6 14 5 8 6 8 9 7 5 6 11 13 10 9 14 4 9 4 4 5 3 6 10 4 5 6 8 2 11 12 8 8 9 22 21 19 16
44 46 48 39 31 28 22 7 11 20 23 4 6 7 10 9 5 8 10 12 15 6 4 10 8 15 13 18 9 15 18 6 7 6 3 2 8 5 1 4 5 15 19 19 18
28 46 38 40 39 39 10 16 16 17 13 13 6 6 10 6 6 8 12 9 13 17 12 10 7 3 4 3 13 8 11 3 4 1 3 6 4 6 4 5 5 12 17 19 19
18 19 27 42 46 29 16 22 20 20 10 13 22 16 17 14 13 15 15 9 7 18 5 4 5 2 3 4 1 6 11 5 5 5 6 4 5 8 9 13 11 14 18 19 18
11 4 19 45 44 13 16 19 22 10 13 17 19 15 11 13 17 12 13 5 13 12 16 6 4 3 5 12 18 7 7 6 3 4 4 3 5 5 11 15 17 17 19 21 21
3 4 23 51 14 11 18 27 11 15 10 13 6 17 13 14 14 18 19 13 17 15 16 9 3 6 11 0 2 12 11 15 7 6 4 2 6 5 4 7 12 15 17 19 19
3 2 14 38 13 11 9 27 17 17 22 12 13 9 10 14 9 16 12 7 15 17 18 12 4 4 4 4 2 8 10 11 8 2 11 7 5 3 3 5 8 12 15 17 19
3 3 3 2 3 21 15 13 27 14 11 21 15 8 5 13 12 7 12 6 12 13 8 15 9 13 16 6 10 11 16 17 17 11 14 19 8 7 9 10 10 12 14 18 19
6 5 4 3 6 13 19 10 20 14 23 11 12 21 24 12 16 24 15 4 4 6 6 12 13 21 26 15 7 6 17 22 25 31 16 21 18 15 17 15 16 16 14 17 19
4 4 1 2 3 10 9 15 19 19 11 15 22 16 18 24 22 15 18 12 13 9 9 3 12 17 19 16 12 10 15 27 29 27 24 15 15 8 14 7 10 13 16 18 19
3 1 3 6 9 9 7 10 14 9 5 6 11 14 12 19 3 3 3 1 3 13 18 12 12 7 18 20 3 7 32 20 21 21 23 21 15 7 7 12 13 14 16 18 17
Wind_Direction
165 114 64 16 11 0 355 360 351 356 1 355 351 345 339 334 325 314 242 175 178 173 155 143 96 74 61 79 48 264 186 177 175 178 153 149 182 114 332 239 63 36 40 356 340
253 275 294 301 307 316 324 331 336 345 349 349 347 341 336 332 324 239 189 174 164 159 153 164 132 93 89 77 42 275 239 171 152 162 160 151 193 135 207 175 140 120 86 40 33
254 269 277 285 290 296 302 310 322 333 340 345 342 337 331 329 259 126 159 164 160 156 156 135 109 81 100 81 38 113 262 149 155 149 150 153 222 159 217 203 73 123 105 42 35
251 260 271 277 284 289 296 308 313 326 333 339 339 335 326 322 278 160 169 175 168 155 138 123 100 100 112 172 96 195 170 171 128 164 170 198 136 198 224 77 68 80 74 55 40
245 255 262 267 271 279 285 297 310 317 329 333 334 336 334 271 257 186 166 166 164 163 159 139 138 139 190 161 166 214 177 193 163 174 232 232 224 262 167 120 104 93 74 55 45
239 243 253 260 266 270 282 293 304 315 322 325 326 327 228 253 198 185 170 171 180 164 148 162 166 149 115 169 235 122 228 257 249 195 211 214 214 192 146 143 114 100 64 45 33
242 242 245 250 257 269 276 285 294 304 315 320 323 305 218 262 202 189 172 182 178 187 156 156 143 181 143 145 114 59 286 282 223 196 215 189 197 218 145 158 125 89 68 45 27
244 246 245 248 251 260 270 277 289 299 306 300 317 248 254 230 196 185 174 147 152 155 138 139 120 98 53 125 105 233 250 256 134 165 159 205 186 144 159 166 154 138 117 87 56
244 242 245 247 248 251 258 268 281 290 294 276 279 237 258 163 187 193 178 152 127 111 95 120 75 84 145 189 211 217 256 220 274 189 162 217 144 159 179 213 177 154 129 101 80
243 241 241 244 245 245 247 260 274 280 248 220 140 247 179 207 163 168 172 152 127 130 112 98 103 180 168 193 236 208 221 223 234 172 213 220 240 173 172 202 185 162 140 118 88
239 242 241 236 236 236 234 245 227 218 210 208 181 263 132 121 132 166 156 123 119 162 186 146 205 215 214 214 238 179 223 248 185 162 253 245 257 206 201 192 186 171 157 132 98
235 238 235 231 223 219 205 232 246 64 284 235 232 263 181 171 132 187 167 177 176 191 137 159 229 230 129 193 201 220 243 248 266 198 227 253 254 257 201 216 205 180 167 149 136
229 232 232 221 209 205 212 215 180 105 265 244 198 205 187 168 209 182 178 160 189 169 194 208 172 185 174 170 196 225 227 237 256 143 218 277 263 246 203 195 181 179 164 160 155
226 229 223 200 189 202 217 221 157 115 267 227 209 215 158 154 222 146 179 163 184 209 181 238 163 154 186 210 201 235 219 235 236 238 262 218 281 242 208 205 197 183 181 169 163
222 221 211 194 164 185 222 201 187 352 271 124 144 115 147 187 125 176 179 161 184 168 179 203 180 190 204 210 187 245 148 210 224 239 269 209 263 236 178 226 206 193 186 176 168
221 216 208 201 195 200 198 165 147 179 240 170 136 161 153 158 102 116 152 65 99 138 263 273 49 214 212 95 180 134 100 79 105 206 250 231 217 215 204 217 178 186 187 179 172
221 215 207 194 194 195 173 159 166 220 125 179 179 175 175 155 152 169 176 184 181 183 224 214 218 182 185 140 88 184 164 200 225 210 247 142 209 243 212 173 185 185 184 180 176
233 216 210 196 189 186 166 196 209 224 215 101 115 131 184 153 182 164 164 196 216 210 142 201 228 191 193 215 183 195 189 197 216 205 206 141 226 242 334 119 133 185 177 173 177
239 212 198 195 184 182 173 200 220 205 190 154 131 165 197 193 171 169 201 216 202 197 200 192 242 177 193 142 173 180 212 185 104 172 261 204 240 238 167 184 166 167 174 181 182
265 215 203 188 181 173 191 207 224 212 142 177 206 188 185 185 176 190 178 188 213 198 203 202 245 250 145 138 226 201 146 176 219 216 232 206 246 225 202 203 179 181 190 187 186
247 262 186 184 175 190 207 216 221 212 190 182 211 204 206 179 195 195 201 171 206 200 192 146 222 137 149 209 190 169 188 213 222 219 227 256 233 217 197 189 188 194 194 189 188
247 240 182 171 196 197 205 210 215 201 203 220 225 212 191 184 194 205 204 214 191 153 179 192 132 199 205 56 296 232 217 195 207 190 238 296 250 161 163 175 193 190 190 193 193
232 244 241 176 205 199 211 220 222 206 206 208 214 204 191 185 209 207 202 207 168 170 169 168 187 229 247 210 187 219 203 222 230 55 209 197 227 167 173 219 203 191 185 189 191
162 235 241 256 199 199 195 212 214 226 221 215 226 194 169 216 228 196 209 196 194 200 166 162 169 204 227 229 156 205 205 202 204 228 225 232 232 198 201 202 199 203 192 190 192
169 203 219 201 223 189 194 190 214 209 216 203 214 220 208 224 232 234 224 168 196 213 197 184 216 216 237 249 213 220 205 199 209 221 213 243 226 198 191 196 196 198 190 186 194
165 168 202 232 177 222 175 203 211 216 187 212 226 215 229 217 211 218 226 203 211 178 187 220 236 220 239 226 224 235 229 208 213 222 234 241 232 194 194 165 180 189 183 194 199
349 235 167 192 206 207 221 204 195 209 212 196 207 224 213 232 236 100 23 183 180 193 188 182 212 185 233 225 191 267 233 214 217 222 221 220 236 138 171 193 198 189 191 198 195